When you browse on this site, cookies collect data to enhance your experience and personalize the content and advertising you see.
Visit our Privacy Policy to learn more. By continuing to use the site, you agree to this use of cookies and data.
  • In France
  • List of Countries
  • For 7 days
  • Water Temperature
  • Satellite Maps
  • Weather Map
  • Weather Widgets
  • user-avatar
    Login

    Hourly Weather Idzhewan

    Today, 23 July, Tuesday

    Time Temperature Precipitation Wind Pressure Humidity
    00:00 +23°C° 0 mm 1 mps 691 mmHg 83%
    01:00 +23°C° 0 mm 1 mps 691 mmHg 85%
    02:00 +23°C° 0 mm 1 mps 690 mmHg 87%
    03:00 +20°C° 0 mm 0 mps 690 mmHg 89%
    04:00 +21°C° 0 mm 0 mps 691 mmHg 89%
    05:00 +21°C° 0 mm 0 mps 691 mmHg 88%
    06:00 +21°C° 0 mm 0 mps 691 mmHg 88%
    07:00 +24°C° 0 mm 1 mps 691 mmHg 85%
    08:00 +25°C° 0 mm 1 mps 691 mmHg 83%
    09:00 +26°C° 0 mm 2 mps 691 mmHg 80%
    10:00 +26°C° 0 mm 2 mps 690 mmHg 78%
    11:00 +27°C° 0 mm 2 mps 690 mmHg 77%
    12:00 +27°C° 0 mm 1 mps 690 mmHg 75%
    13:00 +28°C° 0 mm 2 mps 689 mmHg 73%
    14:00 +29°C° 0 mm 2 mps 689 mmHg 70%
    15:00 +29°C° 0 mm 2 mps 688 mmHg 67%
    16:00 +29°C° 0 mm 2 mps 689 mmHg 67%
    17:00 +29°C° 0 mm 2 mps 689 mmHg 67%
    18:00 +29°C° 0 mm 2 mps 689 mmHg 68%
    19:00 +27°C° 0 mm 1 mps 689 mmHg 71%
    20:00 +26°C° 0 mm 1 mps 689 mmHg 74%
    21:00 +22°C° 0 mm 0 mps 689 mmHg 78%
    22:00 +22°C° 0 mm 0 mps 689 mmHg 79%
    23:00 +22°C° 0 mm 0 mps 689 mmHg 80%

    Tomorrow, 24 July, Wednesday

    Time Temperature Precipitation Wind Pressure Humidity
    00:00 +21°C° 0 mm 0 mps 689 mmHg 82%
    01:00 +21°C° 0 mm 0 mps 689 mmHg 84%
    02:00 +20°C° 0 mm 0 mps 689 mmHg 86%
    03:00 +21°C° 0 mm 1 mps 688 mmHg 88%
    04:00 +22°C° 0 mm 1 mps 689 mmHg 88%
    05:00 +22°C° 0 mm 1 mps 689 mmHg 87%
    06:00 +23°C° 0 mm 1 mps 689 mmHg 86%
    07:00 +24°C° 0 mm 1 mps 689 mmHg 81%
    08:00 +26°C° 0 mm 1 mps 689 mmHg 76%
    09:00 +27°C° 0 mm 2 mps 689 mmHg 71%
    10:00 +28°C° 0 mm 2 mps 689 mmHg 68%
    11:00 +29°C° 0 mm 2 mps 689 mmHg 65%
    12:00 +29°C° 0 mm 2 mps 689 mmHg 63%
    13:00 +30°C° 0.1 mm 2 mps 688 mmHg 60%
    14:00 +31°C° 0.1 mm 2 mps 688 mmHg 57%
    15:00 +32°C° 0.1 mm 2 mps 688 mmHg 54%
    16:00 +31°C° 0 mm 2 mps 688 mmHg 56%
    17:00 +31°C° 0 mm 2 mps 688 mmHg 58%
    18:00 +31°C° 0 mm 2 mps 688 mmHg 60%
    19:00 +29°C° 0 mm 2 mps 688 mmHg 63%
    20:00 +27°C° 0 mm 1 mps 688 mmHg 67%
    21:00 +25°C° 0 mm 1 mps 689 mmHg 70%
    22:00 +25°C° 0 mm 1 mps 689 mmHg 72%
    23:00 +24°C° 0 mm 1 mps 689 mmHg 73%

    Day after tomorrow, 25 July, Thursday

    Time Temperature Precipitation Wind Pressure Humidity
    00:00 +23°C° 0 mm 1 mps 689 mmHg 75%
    01:00 +23°C° 0 mm 1 mps 689 mmHg 76%
    02:00 +23°C° 0 mm 1 mps 689 mmHg 78%
    03:00 +22°C° 0 mm 1 mps 689 mmHg 79%
    04:00 +23°C° 0 mm 1 mps 689 mmHg 78%
    05:00 +23°C° 0 mm 1 mps 690 mmHg 77%
    06:00 +24°C° 0 mm 1 mps 690 mmHg 76%
    07:00 +25°C° 0 mm 1 mps 690 mmHg 70%
    08:00 +27°C° 0 mm 1 mps 690 mmHg 64%
    09:00 +29°C° 0 mm 1 mps 690 mmHg 58%
    10:00 +30°C° 0 mm 2 mps 690 mmHg 53%
    11:00 +32°C° 0 mm 2 mps 690 mmHg 49%
    12:00 +34°C° 0 mm 2 mps 690 mmHg 44%
    13:00 +34°C° 0.1 mm 3 mps 690 mmHg 44%
    14:00 +34°C° 0.1 mm 3 mps 690 mmHg 45%
    15:00 +34°C° 0.1 mm 4 mps 689 mmHg 45%
    16:00 +31°C° 0.1 mm 3 mps 689 mmHg 52%
    17:00 +30°C° 0.1 mm 3 mps 689 mmHg 58%
    18:00 +28°C° 0.1 mm 3 mps 689 mmHg 65%
    19:00 +26°C° 0 mm 2 mps 689 mmHg 70%
    20:00 +24°C° 0 mm 2 mps 689 mmHg 76%
    21:00 +22°C° 0 mm 1 mps 690 mmHg 81%
    22:00 +22°C° 0.1 mm 1 mps 690 mmHg 82%
    23:00 +22°C° 0.1 mm 1 mps 690 mmHg 83%

    26 July, Friday

    Time Temperature Precipitation Wind Pressure Humidity
    00:00 +21°C° 0.1 mm 1 mps 690 mmHg 84%
    01:00 +21°C° 0.1 mm 1 mps 690 mmHg 86%
    02:00 +20°C° 0.1 mm 1 mps 690 mmHg 87%
    03:00 +18°C° 0.1 mm 0 mps 690 mmHg 89%
    04:00 +20°C° 0 mm 1 mps 690 mmHg 87%
    05:00 +21°C° 0 mm 1 mps 691 mmHg 85%
    06:00 +22°C° 0 mm 1 mps 691 mmHg 83%
    07:00 +23°C° 0 mm 1 mps 691 mmHg 75%
    08:00 +25°C° 0 mm 2 mps 691 mmHg 68%
    09:00 +26°C° 0 mm 2 mps 691 mmHg 61%
    10:00 +27°C° 0 mm 2 mps 691 mmHg 58%
    11:00 +28°C° 0 mm 3 mps 691 mmHg 55%
    12:00 +29°C° 0 mm 3 mps 691 mmHg 52%
    13:00 +30°C° 0 mm 3 mps 691 mmHg 51%
    14:00 +30°C° 0 mm 3 mps 690 mmHg 49%
    15:00 +31°C° 0 mm 3 mps 690 mmHg 47%
    16:00 +30°C° 0 mm 3 mps 690 mmHg 49%
    17:00 +29°C° 0 mm 3 mps 690 mmHg 52%
    18:00 +29°C° 0 mm 2 mps 690 mmHg 54%
    19:00 +27°C° 0 mm 2 mps 690 mmHg 58%
    20:00 +25°C° 0 mm 1 mps 690 mmHg 63%
    21:00 +22°C° 0 mm 1 mps 691 mmHg 67%
    22:00 +22°C° 0 mm 1 mps 691 mmHg 68%
    23:00 +22°C° 0 mm 1 mps 691 mmHg 69%

    27 July, Saturday

    Time Temperature Precipitation Wind Pressure Humidity
    00:00 +21°C° 0 mm 1 mps 691 mmHg 69%
    01:00 +21°C° 0 mm 1 mps 691 mmHg 73%
    02:00 +20°C° 0 mm 1 mps 690 mmHg 76%
    03:00 +20°C° 0 mm 1 mps 690 mmHg 79%
    04:00 +20°C° 0 mm 1 mps 690 mmHg 80%
    05:00 +20°C° 0 mm 1 mps 690 mmHg 81%
    06:00 +21°C° 0 mm 1 mps 690 mmHg 82%
    07:00 +22°C° 0 mm 1 mps 690 mmHg 79%
    08:00 +23°C° 0 mm 2 mps 690 mmHg 77%
    09:00 +24°C° 0 mm 2 mps 690 mmHg 74%
    10:00 +24°C° 0 mm 2 mps 690 mmHg 74%
    11:00 +25°C° 0 mm 2 mps 689 mmHg 75%
    12:00 +25°C° 0 mm 2 mps 689 mmHg 75%
    13:00 +26°C° 0 mm 2 mps 689 mmHg 72%
    14:00 +27°C° 0 mm 2 mps 688 mmHg 70%
    15:00 +27°C° 0 mm 2 mps 688 mmHg 67%
    16:00 +27°C° 0 mm 1 mps 688 mmHg 68%
    17:00 +27°C° 0 mm 1 mps 688 mmHg 69%
    18:00 +26°C° 0 mm 1 mps 688 mmHg 71%
    19:00 +25°C° 0 mm 1 mps 688 mmHg 73%
    20:00 +24°C° 0 mm 1 mps 688 mmHg 76%
    21:00 +23°C° 0 mm 1 mps 688 mmHg 79%
    22:00 +23°C° 0 mm 1 mps 688 mmHg 80%
    23:00 +22°C° 0 mm 1 mps 688 mmHg 80%

    28 July, Sunday

    Time Temperature Precipitation Wind Pressure Humidity
    00:00 +22°C° 0 mm 1 mps 688 mmHg 81%
    01:00 +21°C° 0 mm 1 mps 688 mmHg 82%
    02:00 +19°C° 0 mm 0 mps 688 mmHg 82%
    03:00 +19°C° 0 mm 0 mps 687 mmHg 83%
    04:00 +19°C° 0 mm 0 mps 688 mmHg 82%
    05:00 +20°C° 0 mm 0 mps 688 mmHg 82%
    06:00 +20°C° 0 mm 0 mps 688 mmHg 81%
    07:00 +23°C° 0 mm 1 mps 688 mmHg 77%
    08:00 +24°C° 0 mm 1 mps 688 mmHg 74%
    09:00 +25°C° 0 mm 2 mps 688 mmHg 70%
    10:00 +26°C° 0 mm 2 mps 688 mmHg 67%
    11:00 +27°C° 0 mm 2 mps 687 mmHg 65%
    12:00 +28°C° 0 mm 2 mps 687 mmHg 62%
    13:00 +28°C° 0 mm 2 mps 687 mmHg 60%
    14:00 +29°C° 0 mm 2 mps 687 mmHg 58%
    15:00 +30°C° 0 mm 2 mps 686 mmHg 56%
    16:00 +29°C° 0 mm 2 mps 686 mmHg 57%
    17:00 +29°C° 0 mm 2 mps 686 mmHg 59%
    18:00 +29°C° 0 mm 2 mps 686 mmHg 61%
    19:00 +27°C° 0.1 mm 1 mps 687 mmHg 66%
    20:00 +25°C° 0.1 mm 1 mps 687 mmHg 71%
    21:00 +23°C° 0.1 mm 1 mps 687 mmHg 76%
    22:00 +22°C° 0.1 mm 1 mps 687 mmHg 77%
    23:00 +22°C° 0.1 mm 1 mps 687 mmHg 79%
    Show more